Overview Statistics Trail Chart Weather Telemetry Raw packets
 

This is the latest recevied weather packets stored in our database for station/object W0WFX-2. If no packets are shown the sender has not sent any weather packets the latest 10 day(s).

<< 3 4 5 6 7 8 9 >>
Time Temp. Humidity Pressure Rain* Wind** Luminosity Snow
1788617832 28.89° C 66% 1014.7 hPa 0 mm - 70 W/m² -
1788617528 28.33° C 68% 1014.8 hPa 0 mm - 70 W/m² -
1788617223 28.33° C 69% 1014.8 hPa 0 mm - 71 W/m² -
1788616917 27.78° C 69% 1014.9 hPa 0 mm - 91 W/m² -
1788616612 27.22° C 72% 1014.9 hPa 0 mm - 130 W/m² -
1788616308 27.22° C 73% 1015 hPa 0 mm - 63 W/m² -
1788616007 26.67° C 73% 1014.7 hPa 0 mm - 59 W/m² -
1788615706 26.67° C 75% 1014.7 hPa 0 mm - 58 W/m² -
1788615402 26.11° C 75% 1014.5 hPa 0 mm - 56 W/m² -
1788615101 26.11° C 75% 1014.6 hPa 0 mm - 53 W/m² -
1788614801 25.56° C 77% 1014.3 hPa 0 mm - 52 W/m² -
1788614496 25.56° C 77% 1014.4 hPa 0 mm - 56 W/m² -
1788614192 25.56° C 79% 1014.3 hPa 0 mm - 57 W/m² -
1788613887 25° C 79% 1014.4 hPa 0 mm - 59 W/m² -
1788613587 25° C 79% 1014.4 hPa 0 mm - 54 W/m² -
1788613287 25° C 79% 1014.4 hPa 0 mm - 51 W/m² -
1788612986 25° C 80% 1014.2 hPa 0 mm - 50 W/m² -
1788612683 24.44° C 80% 1014.1 hPa 0 mm - 48 W/m² -
1788612379 24.44° C 80% 1014.1 hPa 0 mm - 45 W/m² -
1788612075 24.44° C 80% 1014 hPa 0 mm - 40 W/m² -
1788611770 24.44° C 81% 1014.1 hPa 0 mm - 38 W/m² -
1788611467 23.89° C 81% 1014 hPa 0 mm - 37 W/m² -
1788611167 23.89° C 80% 1013.9 hPa 0 mm - 33 W/m² -
1788610867 23.89° C 80% 1013.7 hPa 0 mm - 25 W/m² -
1788610561 23.89° C 79% 1013.8 hPa 0 mm - 19 W/m² -

* Rain latest hour (hover to see other rain measurements)
** Current wind speed in m/s (hover to see current wind gust speed)